Overview Statistics Trail Chart Weather Telemetry Raw packets
 

This is the latest recevied weather packets stored in our database for station/object KH6DH-13. If no packets are shown the sender has not sent any weather packets the latest 10 day(s).

<< 48 49 50 51 52 53 54 >>
Time Temp. Humidity Pressure Rain* Wind** Luminosity Snow
1787933108 25° C - - 0 mm 1.34 m/s, 98° - -
1787932507 25° C - - 0 mm 2.24 m/s, 31° - -
1787931904 25° C - - 0 mm 0.89 m/s, 100° - -
1787931302 25° C - - 0 mm 1.79 m/s, 68° - -
1787930701 25° C - - 0 mm 0.45 m/s, 31° - -
1787930100 25° C - - 0 mm 1.79 m/s, 356° - -
1787929499 25° C - - 0 mm 1.79 m/s, 27° - -
1787928898 25° C - - 0 mm 0.45 m/s, 232° - -
1787928297 25° C - - 0 mm 1.34 m/s, 56° - -
1787927693 25° C - - 0 mm 0.89 m/s, 10° - -
1787927092 25° C - - 0 mm 0.89 m/s, 103° - -
1787926491 25° C - - 0 mm 0.45 m/s, 86° - -
1787925890 25° C - - 0 mm 0.45 m/s, 17° - -
1787925289 25° C - - 0 mm 0 m/s - -
1787924688 25° C - - 0 mm 1.34 m/s, 44° - -
1787924087 25° C - - 0 mm 0.89 m/s, 68° - -
1787923486 25° C - - 0 mm 1.79 m/s, 20° - -
1787922885 25° C - - 0 mm 1.34 m/s, 30° - -
1787922284 25° C - - 0 mm 1.34 m/s, 354° - -
1787921683 25° C - - 0 mm 0.45 m/s, 354° - -
1787921082 25° C - - 0 mm 1.79 m/s, 69° - -
1787920481 25° C - - 0 mm 1.79 m/s, 98° - -
1787919880 25° C - - 0 mm 0.89 m/s, 24° - -
1787919279 25.56° C - - 0 mm 1.34 m/s, 51° - -
1787918678 25° C - - 0 mm 1.34 m/s, 359° - -

* Rain latest hour (hover to see other rain measurements)
** Current wind speed in m/s (hover to see current wind gust speed)